Details for AirAsia Thailand at VTBU




Go Back


Latest METAR
Local Time

VTBU 220900Z 20002KT 4000 -RA BR FEW018CB SCT035 BKN100 27/23 Q1008 NOSIG
22/09/2018, 16:26:30

Description
Results
AirAsia Thailand Logo
Number of Pilots based at VTBU
0 Pilots Based here
Number of AirAsia Thailand Flights Departed from VTBU
0 Flights Departed
Number of AirAsia Thailand Flights Arrived at VTBU
0 Flights Arrived
Number of AirAsia Thailand Schedules Departing from VTBU
10 Schedules
Number of AirAsia Thailand Schedules Arriving at VTBU
10 Schedules
Number of AirAsia Thailand Schedules Departing from VTBU availible today
8 Schedules Today
Number of AirAsia Thailand Schedules Arriving at VTBU availible today
8 Schedules Today
Average Landing Rate at VTBU
0 fpm
AirAsia Thailand Average Landing Rate at VTBU
0 fpm
Total Fuel Purchased at VTBU by AirAsia Thailand
0.00 kgs / 0.00 lbs

Pilots Based at VTBU


Pilot ID
Pilot Name
Pilot Rank
No. of Flights
No. of Flying Hours
There are no pilots assigned to this hub!   Will you be the first?
Content